When you browse on this site, cookies collect data to enhance your experience and personalize the content and advertising you see.
Visit our Privacy Policy to learn more. By continuing to use the site, you agree to this use of cookies and data.
  • In Portugal
  • List of Countries
  • For 7 days
  • Water Temperature
  • Weather Map
  • Weather Widgets
  • user-avatar
    Login

    Hourly Weather Resht

    Today, 26 August, Monday

    Time Temperature Precipitation Wind Pressure Humidity
    00:00 +27°C° 0 mm 1 mps 760 mmHg 72%
    01:00 +27°C° 0 mm 1 mps 760 mmHg 73%
    02:00 +27°C° 0 mm 1 mps 760 mmHg 73%
    03:00 +24°C° 0 mm 0 mps 760 mmHg 77%
    04:00 +27°C° 0 mm 1 mps 760 mmHg 75%
    05:00 +27°C° 0 mm 1 mps 760 mmHg 73%
    06:00 +27°C° 0 mm 1 mps 761 mmHg 71%
    07:00 +29°C° 0 mm 2 mps 761 mmHg 63%
    08:00 +30°C° 0 mm 2 mps 761 mmHg 56%
    09:00 +33°C° 0 mm 3 mps 761 mmHg 49%
    10:00 +34°C° 0 mm 3 mps 760 mmHg 45%
    11:00 +35°C° 0 mm 4 mps 760 mmHg 41%
    12:00 +36°C° 0 mm 4 mps 760 mmHg 36%
    13:00 +35°C° 0 mm 4 mps 760 mmHg 36%
    14:00 +35°C° 0 mm 4 mps 759 mmHg 36%
    15:00 +35°C° 0 mm 4 mps 759 mmHg 35%
    16:00 +33°C° 0 mm 4 mps 759 mmHg 42%
    17:00 +30°C° 0 mm 3 mps 760 mmHg 49%
    18:00 +29°C° 0 mm 3 mps 760 mmHg 56%
    19:00 +28°C° 0 mm 3 mps 761 mmHg 60%
    20:00 +27°C° 0 mm 2 mps 761 mmHg 64%
    21:00 +26°C° 0 mm 2 mps 762 mmHg 68%
    22:00 +26°C° 0 mm 2 mps 762 mmHg 67%
    23:00 +26°C° 0 mm 3 mps 762 mmHg 67%

    Tomorrow, 27 August, Tuesday

    Time Temperature Precipitation Wind Pressure Humidity
    00:00 +26°C° 0 mm 3 mps 762 mmHg 66%
    01:00 +26°C° 0 mm 3 mps 762 mmHg 64%
    02:00 +26°C° 0 mm 2 mps 763 mmHg 61%
    03:00 +25°C° 0 mm 2 mps 763 mmHg 58%
    04:00 +26°C° 0 mm 2 mps 763 mmHg 57%
    05:00 +26°C° 0 mm 2 mps 763 mmHg 56%
    06:00 +26°C° 0 mm 2 mps 763 mmHg 56%
    07:00 +28°C° 0 mm 2 mps 762 mmHg 52%
    08:00 +29°C° 0 mm 2 mps 762 mmHg 49%
    09:00 +31°C° 0 mm 2 mps 762 mmHg 46%
    10:00 +33°C° 0 mm 3 mps 761 mmHg 44%
    11:00 +33°C° 0 mm 3 mps 760 mmHg 43%
    12:00 +34°C° 0 mm 4 mps 760 mmHg 41%
    13:00 +34°C° 0 mm 4 mps 759 mmHg 43%
    14:00 +34°C° 0 mm 4 mps 758 mmHg 46%
    15:00 +33°C° 0 mm 4 mps 758 mmHg 48%
    16:00 +31°C° 0 mm 3 mps 758 mmHg 53%
    17:00 +30°C° 0 mm 2 mps 758 mmHg 59%
    18:00 +28°C° 0 mm 1 mps 758 mmHg 64%
    19:00 +27°C° 0 mm 1 mps 758 mmHg 67%
    20:00 +27°C° 0 mm 1 mps 758 mmHg 71%
    21:00 +24°C° 0 mm 0 mps 758 mmHg 74%
    22:00 +26°C° 0 mm 1 mps 758 mmHg 74%
    23:00 +25°C° 0 mm 1 mps 758 mmHg 75%

    Day after tomorrow, 28 August, Wednesday

    Time Temperature Precipitation Wind Pressure Humidity
    00:00 +25°C° 0 mm 1 mps 758 mmHg 75%
    01:00 +25°C° 0 mm 1 mps 758 mmHg 76%
    02:00 +25°C° 0 mm 1 mps 758 mmHg 76%
    03:00 +25°C° 0 mm 1 mps 758 mmHg 77%
    04:00 +25°C° 0 mm 1 mps 759 mmHg 75%
    05:00 +25°C° 0 mm 1 mps 759 mmHg 74%
    06:00 +25°C° 0 mm 1 mps 759 mmHg 73%
    07:00 +27°C° 0 mm 2 mps 759 mmHg 64%
    08:00 +29°C° 0 mm 2 mps 759 mmHg 56%
    09:00 +31°C° 0 mm 3 mps 759 mmHg 47%
    10:00 +31°C° 0 mm 3 mps 759 mmHg 46%
    11:00 +33°C° 0 mm 4 mps 759 mmHg 45%
    12:00 +34°C° 0 mm 4 mps 759 mmHg 45%
    13:00 +34°C° 0 mm 4 mps 759 mmHg 45%
    14:00 +34°C° 0 mm 4 mps 758 mmHg 45%
    15:00 +33°C° 0 mm 4 mps 758 mmHg 45%
    16:00 +31°C° 0 mm 3 mps 759 mmHg 51%
    17:00 +30°C° 0 mm 3 mps 759 mmHg 56%
    18:00 +28°C° 0 mm 2 mps 759 mmHg 61%
    19:00 +27°C° 0 mm 1 mps 760 mmHg 64%
    20:00 +26°C° 0 mm 1 mps 760 mmHg 67%
    21:00 +23°C° 0 mm 0 mps 761 mmHg 70%
    22:00 +23°C° 0 mm 0 mps 761 mmHg 70%
    23:00 +25°C° 0 mm 1 mps 761 mmHg 69%

    29 August, Thursday

    Time Temperature Precipitation Wind Pressure Humidity
    00:00 +25°C° 0 mm 1 mps 760 mmHg 69%
    01:00 +24°C° 0 mm 1 mps 760 mmHg 68%
    02:00 +24°C° 0 mm 1 mps 760 mmHg 67%
    03:00 +24°C° 0 mm 1 mps 760 mmHg 66%
    04:00 +24°C° 0 mm 1 mps 761 mmHg 64%
    05:00 +25°C° 0 mm 1 mps 761 mmHg 63%
    06:00 +25°C° 0 mm 1 mps 761 mmHg 61%
    07:00 +27°C° 0 mm 1 mps 761 mmHg 54%
    08:00 +30°C° 0 mm 1 mps 760 mmHg 47%
    09:00 +32°C° 0 mm 1 mps 760 mmHg 40%
    10:00 +34°C° 0 mm 2 mps 760 mmHg 39%
    11:00 +35°C° 0 mm 3 mps 759 mmHg 37%
    12:00 +35°C° 0 mm 4 mps 759 mmHg 36%
    13:00 +35°C° 0 mm 4 mps 759 mmHg 38%
    14:00 +35°C° 0 mm 4 mps 758 mmHg 40%
    15:00 +34°C° 0 mm 4 mps 758 mmHg 42%
    16:00 +33°C° 0 mm 4 mps 758 mmHg 47%
    17:00 +30°C° 0 mm 3 mps 759 mmHg 52%
    18:00 +29°C° 0 mm 2 mps 759 mmHg 58%
    19:00 +28°C° 0 mm 2 mps 760 mmHg 62%
    20:00 +27°C° 0 mm 1 mps 760 mmHg 66%
    21:00 +26°C° 0 mm 1 mps 761 mmHg 70%
    22:00 +25°C° 0 mm 1 mps 761 mmHg 70%
    23:00 +25°C° 0 mm 1 mps 761 mmHg 71%

    30 August, Friday

    Time Temperature Precipitation Wind Pressure Humidity
    00:00 +25°C° 0 mm 1 mps 761 mmHg 71%
    01:00 +25°C° 0.1 mm 1 mps 761 mmHg 71%
    02:00 +25°C° 0.1 mm 1 mps 761 mmHg 71%
    03:00 +25°C° 0.1 mm 1 mps 761 mmHg 71%
    04:00 +25°C° 0 mm 1 mps 761 mmHg 71%
    05:00 +25°C° 0 mm 1 mps 761 mmHg 70%
    06:00 +25°C° 0 mm 1 mps 760 mmHg 70%
    07:00 +27°C° 0 mm 1 mps 760 mmHg 63%
    08:00 +29°C° 0 mm 1 mps 760 mmHg 57%
    09:00 +31°C° 0 mm 1 mps 759 mmHg 50%
    10:00 +32°C° 0 mm 2 mps 759 mmHg 48%
    11:00 +34°C° 0 mm 3 mps 759 mmHg 47%
    12:00 +34°C° 0 mm 4 mps 758 mmHg 45%
    13:00 +34°C° 0 mm 4 mps 758 mmHg 47%
    14:00 +33°C° 0 mm 4 mps 757 mmHg 49%
    15:00 +33°C° 0 mm 4 mps 756 mmHg 52%
    16:00 +30°C° 0 mm 4 mps 756 mmHg 56%
    17:00 +29°C° 0 mm 4 mps 757 mmHg 61%
    18:00 +28°C° 0 mm 3 mps 757 mmHg 65%
    19:00 +27°C° 0 mm 3 mps 757 mmHg 66%
    20:00 +27°C° 0 mm 2 mps 757 mmHg 67%
    21:00 +27°C° 0 mm 2 mps 757 mmHg 69%
    22:00 +26°C° 0 mm 1 mps 757 mmHg 72%
    23:00 +25°C° 0 mm 1 mps 757 mmHg 76%

    31 August, Saturday

    Time Temperature Precipitation Wind Pressure Humidity
    00:00 +24°C° 0 mm 1 mps 756 mmHg 79%
    01:00 +24°C° 0 mm 1 mps 756 mmHg 79%
    02:00 +24°C° 0 mm 1 mps 756 mmHg 79%
    03:00 +24°C° 0 mm 1 mps 756 mmHg 79%
    04:00 +25°C° 0 mm 1 mps 756 mmHg 78%
    05:00 +25°C° 0 mm 1 mps 756 mmHg 77%
    06:00 +25°C° 0 mm 1 mps 757 mmHg 77%
    07:00 +26°C° 0 mm 1 mps 757 mmHg 74%
    08:00 +26°C° 0 mm 1 mps 757 mmHg 71%
    09:00 +27°C° 0 mm 2 mps 758 mmHg 68%
    10:00 +27°C° 0.1 mm 2 mps 757 mmHg 69%
    11:00 +27°C° 0.1 mm 2 mps 757 mmHg 69%
    12:00 +27°C° 0.1 mm 3 mps 757 mmHg 69%
    13:00 +27°C° 0.3 mm 3 mps 757 mmHg 72%
    14:00 +26°C° 0.3 mm 4 mps 757 mmHg 75%
    15:00 +26°C° 0.3 mm 4 mps 757 mmHg 79%
    16:00 +25°C° 0.9 mm 4 mps 758 mmHg 82%
    17:00 +24°C° 0.9 mm 3 mps 758 mmHg 85%
    18:00 +24°C° 0.9 mm 3 mps 759 mmHg 89%
    19:00 +24°C° 0.7 mm 3 mps 759 mmHg 88%
    20:00 +24°C° 0.7 mm 2 mps 760 mmHg 88%
    21:00 +23°C° 0.7 mm 2 mps 760 mmHg 88%
    22:00 +23°C° 0.3 mm 2 mps 760 mmHg 88%
    23:00 +23°C° 0.3 mm 2 mps 760 mmHg 89%
    Show more